QPF
0.02 0.01 0.01 0.01 0.01 0.01 0.00 0.00 0.00 0.00 0.01 0.00 0.01 0.01 0.01 0.01 0.02 0.03 0.04 0.02 0.02 0.02 0.03 0.02 0.01 0.01 0.01 0.01 0.01 0.01 0.02 0.02 0.03 0.04 0.04 0.04 0.03 0.03 0.03 0.04 0.04 0.04 0.03
0.06 0.03 0.02 0.02 0.01 0.01 0.00 0.00 0.00 0.00 0.00 0.00 0.00 0.01 0.01 0.01 0.02 0.02 0.03 0.04 0.04 0.04 0.04 0.03 0.01 0.01 0.01 0.01 0.00 0.01 0.02 0.04 0.04 0.04 0.04 0.05 0.05 0.05 0.04 0.04 0.05 0.04 0.04
0.10 0.07 0.03 0.03 0.02 0.01 0.00 0.00 0.00 0.00 0.00 0.00 0.00 0.00 0.01 0.02 0.02 0.02 0.04 0.07 0.07 0.06 0.05 0.03 0.02 0.02 0.01 0.01 0.01 0.02 0.03 0.04 0.03 0.03 0.05 0.04 0.05 0.05 0.04 0.03 0.05 0.06 0.07
0.13 0.10 0.04 0.03 0.02 0.01 0.01 0.00 0.00 0.00 0.00 0.00 0.01 0.00 0.00 0.01 0.01 0.01 0.03 0.03 0.04 0.05 0.05 0.02 0.02 0.03 0.03 0.02 0.03 0.02 0.02 0.03 0.03 0.02 0.04 0.04 0.05 0.04 0.04 0.04 0.04 0.06 0.10
0.08 0.05 0.05 0.06 0.03 0.03 0.02 0.01 0.01 0.00 0.01 0.00 0.01 0.01 0.00 0.01 0.01 0.01 0.02 0.02 0.02 0.03 0.02 0.02 0.01 0.02 0.02 0.03 0.03 0.03 0.02 0.03 0.03 0.02 0.03 0.03 0.05 0.04 0.03 0.04 0.05 0.05 0.05
0.05 0.05 0.06 0.08 0.10 0.08 0.04 0.03 0.02 0.01 0.01 0.01 0.01 0.01 0.01 0.01 0.01 0.02 0.02 0.01 0.01 0.01 0.01 0.01 0.01 0.03 0.04 0.04 0.04 0.04 0.04 0.03 0.02 0.02 0.02 0.03 0.04 0.03 0.02 0.01 0.01 0.02 0.02
0.04 0.06 0.09 0.08 0.09 0.13 0.06 0.02 0.02 0.02 0.01 0.02 0.02 0.02 0.02 0.01 0.01 0.01 0.01 0.01 0.01 0.01 0.01 0.02 0.02 0.02 0.02 0.02 0.03 0.04 0.06 0.06 0.03 0.02 0.02 0.02 0.03 0.03 0.03 0.03 0.02 0.01 0.01
0.05 0.07 0.10 0.10 0.07 0.07 0.08 0.04 0.01 0.02 0.02 0.02 0.02 0.03 0.03 0.02 0.01 0.01 0.02 0.02 0.02 0.02 0.01 0.02 0.02 0.02 0.02 0.02 0.02 0.02 0.03 0.06 0.06 0.03 0.02 0.02 0.03 0.03 0.04 0.04 0.03 0.02 0.02
0.05 0.06 0.07 0.06 0.07 0.06 0.04 0.03 0.02 0.03 0.03 0.03 0.03 0.04 0.04 0.03 0.03 0.03 0.02 0.03 0.03 0.02 0.02 0.02 0.02 0.02 0.02 0.02 0.03 0.02 0.02 0.03 0.04 0.04 0.02 0.02 0.02 0.02 0.04 0.03 0.03 0.04 0.03
0.06 0.05 0.04 0.05 0.04 0.03 0.02 0.03 0.03 0.03 0.04 0.04 0.05 0.04 0.04 0.04 0.03 0.03 0.02 0.02 0.01 0.01 0.02 0.01 0.02 0.03 0.03 0.03 0.03 0.03 0.02 0.02 0.02 0.02 0.02 0.02 0.02 0.02 0.04 0.04 0.04 0.05 0.05
0.06 0.05 0.03 0.03 0.03 0.03 0.03 0.03 0.04 0.06 0.06 0.07 0.06 0.05 0.04 0.03 0.03 0.04 0.03 0.02 0.01 0.01 0.01 0.02 0.03 0.03 0.03 0.03 0.03 0.03 0.02 0.01 0.01 0.01 0.01 0.01 0.01 0.02 0.06 0.07 0.05 0.04 0.05
0.08 0.08 0.06 0.03 0.03 0.02 0.03 0.03 0.07 0.13 0.12 0.10 0.09 0.07 0.04 0.04 0.03 0.02 0.02 0.01 0.01 0.02 0.03 0.03 0.03 0.02 0.02 0.03 0.03 0.02 0.03 0.01 0.01 0.02 0.02 0.01 0.01 0.01 0.04 0.08 0.06 0.06 0.07
0.06 0.06 0.08 0.05 0.04 0.03 0.02 0.01 0.03 0.07 0.08 0.05 0.05 0.05 0.04 0.03 0.02 0.02 0.02 0.02 0.01 0.02 0.03 0.03 0.04 0.03 0.03 0.03 0.02 0.02 0.03 0.01 0.01 0.01 0.01 0.02 0.02 0.01 0.02 0.05 0.06 0.05 0.05
0.04 0.05 0.06 0.05 0.05 0.04 0.03 0.02 0.02 0.02 0.02 0.02 0.03 0.03 0.04 0.03 0.01 0.01 0.02 0.01 0.01 0.02 0.02 0.02 0.03 0.03 0.04 0.04 0.03 0.04 0.03 0.01 0.01 0.01 0.01 0.02 0.02 0.01 0.02 0.03 0.02 0.02 0.03
0.07 0.05 0.05 0.05 0.07 0.07 0.05 0.04 0.04 0.02 0.02 0.02 0.03 0.02 0.02 0.02 0.02 0.01 0.01 0.01 0.01 0.01 0.02 0.03 0.03 0.04 0.04 0.04 0.05 0.05 0.03 0.02 0.01 0.01 0.01 0.01 0.01 0.02 0.03 0.03 0.01 0.02 0.03
0.08 0.08 0.09 0.09 0.11 0.11 0.10 0.08 0.07 0.06 0.05 0.04 0.02 0.02 0.02 0.02 0.02 0.02 0.02 0.02 0.02 0.02 0.02 0.03 0.04 0.04 0.04 0.04 0.05 0.05 0.04 0.02 0.02 0.01 0.02 0.02 0.02 0.02 0.03 0.03 0.03 0.03 0.02
0.09 0.11 0.10 0.11 0.11 0.13 0.11 0.08 0.06 0.05 0.06 0.05 0.04 0.03 0.03 0.03 0.03 0.03 0.02 0.02 0.02 0.02 0.03 0.04 0.04 0.05 0.06 0.06 0.06 0.06 0.05 0.05 0.05 0.05 0.05 0.04 0.03 0.04 0.03 0.02 0.02 0.03 0.03
0.06 0.07 0.08 0.09 0.09 0.09 0.08 0.06 0.06 0.05 0.06 0.05 0.04 0.04 0.05 0.04 0.03 0.02 0.03 0.03 0.02 0.02 0.02 0.02 0.02 0.03 0.04 0.05 0.05 0.05 0.05 0.05 0.06 0.07 0.07 0.07 0.06 0.05 0.04 0.03 0.03 0.03 0.03
0.08 0.06 0.05 0.05 0.05 0.05 0.05 0.04 0.04 0.05 0.06 0.04 0.04 0.04 0.04 0.04 0.03 0.02 0.03 0.03 0.03 0.02 0.02 0.01 0.02 0.02 0.03 0.04 0.04 0.04 0.05 0.05 0.05 0.05 0.04 0.05 0.05 0.05 0.05 0.05 0.05 0.04 0.03
0.03 0.04 0.05 0.05 0.04 0.03 0.03 0.04 0.03 0.03 0.04 0.04 0.03 0.03 0.02 0.03 0.03 0.03 0.04 0.04 0.04 0.03 0.02 0.03 0.04 0.05 0.04 0.04 0.04 0.05 0.04 0.05 0.05 0.06 0.06 0.05 0.05 0.05 0.05 0.04 0.04 0.04 0.04
0.03 0.03 0.04 0.04 0.03 0.04 0.05 0.05 0.04 0.04 0.04 0.03 0.03 0.03 0.03 0.03 0.03 0.03 0.04 0.04 0.05 0.04 0.03 0.04 0.04 0.05 0.07 0.09 0.08 0.07 0.06 0.05 0.06 0.06 0.06 0.06 0.07 0.06 0.04 0.02 0.02 0.03 0.05
0.04 0.05 0.06 0.06 0.05 0.04 0.06 0.09 0.06 0.04 0.04 0.05 0.05 0.05 0.05 0.06 0.06 0.04 0.05 0.05 0.07 0.06 0.05 0.06 0.07 0.10 0.11 0.09 0.09 0.11 0.10 0.10 0.08 0.08 0.09 0.08 0.06 0.03 0.02 0.02 0.02 0.03 0.04
0.01 0.02 0.04 0.06 0.07 0.06 0.04 0.04 0.05 0.05 0.05 0.05 0.05 0.05 0.06 0.06 0.06 0.06 0.07 0.08 0.10 0.08 0.06 0.06 0.05 0.04 0.05 0.06 0.07 0.10 0.12 0.12 0.09 0.07 0.07 0.06 0.04 0.03 0.03 0.03 0.04 0.04 0.03
0.02 0.02 0.01 0.04 0.07 0.05 0.04 0.03 0.03 0.04 0.04 0.05 0.06 0.07 0.06 0.06 0.05 0.05 0.06 0.04 0.04 0.04 0.03 0.03 0.03 0.04 0.05 0.04 0.05 0.06 0.08 0.09 0.07 0.04 0.03 0.03 0.03 0.02 0.02 0.03 0.04 0.04 0.03
0.04 0.03 0.03 0.02 0.02 0.02 0.02 0.03 0.04 0.04 0.05 0.05 0.06 0.07 0.07 0.06 0.05 0.05 0.05 0.03 0.02 0.02 0.03 0.04 0.05 0.07 0.08 0.07 0.06 0.04 0.02 0.02 0.02 0.02 0.01 0.02 0.02 0.02 0.02 0.02 0.03 0.04 0.04
0.07 0.06 0.07 0.07 0.05 0.04 0.04 0.04 0.05 0.05 0.05 0.05 0.04 0.05 0.06 0.05 0.05 0.05 0.04 0.03 0.02 0.02 0.03 0.04 0.04 0.04 0.04 0.04 0.03 0.02 0.01 0.01 0.01 0.01 0.01 0.02 0.01 0.01 0.02 0.02 0.02 0.02 0.02
MSLP
1009.81 1009.76 1009.74 1009.74 1009.75 1009.80 1009.89 1010.06 1010.32 1010.66 1011.07 1011.49 1011.88 1012.20 1012.43 1012.55 1012.59 1012.59 1012.58 1012.60 1012.67 1012.79 1012.96 1013.13 1013.28 1013.38 1013.42 1013.41 1013.38 1013.37 1013.42 1013.58 1013.84 1014.22 1014.68 1015.19 1015.69 1016.14 1016.50 1016.77 1016.95 1017.05 1017.10
1009.24 1009.26 1009.30 1009.34 1009.38 1009.42 1009.51 1009.67 1009.95 1010.35 1010.82 1011.34 1011.84 1012.26 1012.58 1012.77 1012.85 1012.86 1012.85 1012.87 1012.94 1013.09 1013.28 1013.50 1013.70 1013.85 1013.92 1013.92 1013.88 1013.83 1013.83 1013.93 1014.14 1014.48 1014.93 1015.44 1015.98 1016.48 1016.91 1017.25 1017.47 1017.61 1017.68
1008.40 1008.52 1008.65 1008.76 1008.84 1008.90 1008.99 1009.16 1009.45 1009.88 1010.42 1011.02 1011.62 1012.16 1012.58 1012.87 1013.02 1013.08 1013.10 1013.14 1013.23 1013.39 1013.62 1013.87 1014.12 1014.30 1014.39 1014.40 1014.34 1014.26 1014.20 1014.23 1014.39 1014.68 1015.10 1015.62 1016.18 1016.73 1017.23 1017.62 1017.92 1018.10 1018.20
1007.33 1007.56 1007.80 1008.00 1008.13 1008.21 1008.30 1008.46 1008.75 1009.19 1009.77 1010.44 1011.14 1011.80 1012.34 1012.75 1013.01 1013.15 1013.24 1013.33 1013.46 1013.66 1013.93 1014.22 1014.50 1014.71 1014.83 1014.85 1014.78 1014.66 1014.56 1014.53 1014.62 1014.86 1015.24 1015.74 1016.30 1016.89 1017.43 1017.89 1018.24 1018.47 1018.60
1006.16 1006.50 1006.84 1007.12 1007.29 1007.39 1007.46 1007.59 1007.85 1008.28 1008.87 1009.60 1010.38 1011.15 1011.83 1012.38 1012.77 1013.05 1013.24 1013.42 1013.62 1013.87 1014.18 1014.51 1014.83 1015.08 1015.23 1015.26 1015.20 1015.07 1014.93 1014.86 1014.89 1015.07 1015.39 1015.85 1016.39 1016.97 1017.53 1018.02 1018.41 1018.69 1018.85
1005.06 1005.48 1005.91 1006.24 1006.44 1006.52 1006.56 1006.63 1006.83 1007.22 1007.80 1008.55 1009.41 1010.28 1011.10 1011.80 1012.35 1012.77 1013.10 1013.38 1013.67 1013.99 1014.36 1014.74 1015.10 1015.40 1015.59 1015.66 1015.62 1015.50 1015.36 1015.25 1015.23 1015.34 1015.60 1015.98 1016.47 1017.01 1017.54 1018.03 1018.44 1018.74 1018.94
1004.20 1004.68 1005.15 1005.50 1005.68 1005.73 1005.70 1005.69 1005.81 1006.14 1006.69 1007.45 1008.35 1009.32 1010.26 1011.11 1011.82 1012.39 1012.86 1013.26 1013.64 1014.04 1014.46 1014.90 1015.31 1015.66 1015.90 1016.03 1016.04 1015.96 1015.83 1015.71 1015.66 1015.71 1015.89 1016.19 1016.58 1017.04 1017.52 1017.97 1018.36 1018.67 1018.89
1003.70 1004.20 1004.67 1005.00 1005.14 1005.11 1004.99 1004.90 1004.93 1005.19 1005.70 1006.46 1007.39 1008.43 1009.48 1010.45 1011.30 1012.01 1012.60 1013.10 1013.57 1014.03 1014.50 1014.98 1015.44 1015.84 1016.16 1016.35 1016.43 1016.42 1016.33 1016.23 1016.17 1016.17 1016.27 1016.48 1016.77 1017.12 1017.51 1017.89 1018.24 1018.53 1018.75
1003.62 1004.09 1004.52 1004.78 1004.84 1004.73 1004.53 1004.35 1004.31 1004.51 1004.99 1005.74 1006.70 1007.79 1008.91 1009.98 1010.92 1011.72 1012.39 1012.97 1013.48 1013.98 1014.48 1014.99 1015.49 1015.94 1016.32 1016.60 1016.77 1016.84 1016.82 1016.77 1016.71 1016.70 1016.74 1016.85 1017.03 1017.27 1017.55 1017.84 1018.12 1018.38 1018.60
1003.90 1004.32 1004.66 1004.83 1004.79 1004.59 1004.32 1004.08 1004.00 1004.18 1004.65 1005.40 1006.38 1007.51 1008.67 1009.78 1010.77 1011.61 1012.31 1012.90 1013.42 1013.92 1014.42 1014.93 1015.45 1015.94 1016.38 1016.74 1017.01 1017.17 1017.25 1017.27 1017.25 1017.23 1017.24 1017.28 1017.37 1017.50 1017.67 1017.87 1018.08 1018.29 1018.50
1004.46 1004.78 1005.00 1005.05 1004.91 1004.64 1004.32 1004.06 1004.00 1004.20 1004.70 1005.48 1006.48 1007.62 1008.78 1009.89 1010.87 1011.69 1012.37 1012.92 1013.41 1013.86 1014.33 1014.82 1015.33 1015.84 1016.33 1016.76 1017.12 1017.39 1017.57 1017.67 1017.71 1017.72 1017.72 1017.72 1017.74 1017.79 1017.87 1017.98 1018.13 1018.29 1018.48
1005.13 1005.32 1005.40 1005.32 1005.09 1004.76 1004.44 1004.22 1004.21 1004.48 1005.05 1005.88 1006.91 1008.05 1009.20 1010.26 1011.18 1011.94 1012.54 1013.02 1013.43 1013.82 1014.22 1014.67 1015.16 1015.67 1016.19 1016.68 1017.11 1017.46 1017.74 1017.93 1018.05 1018.11 1018.13 1018.12 1018.11 1018.10 1018.12 1018.16 1018.25 1018.38 1018.54
1005.79 1005.83 1005.74 1005.53 1005.22 1004.87 1004.58 1004.44 1004.54 1004.92 1005.58 1006.48 1007.54 1008.67 1009.77 1010.77 1011.60 1012.26 1012.76 1013.15 1013.47 1013.78 1014.11 1014.51 1014.97 1015.47 1016.00 1016.51 1017.00 1017.42 1017.77 1018.04 1018.22 1018.34 1018.40 1018.42 1018.40 1018.38 1018.36 1018.36 1018.40 1018.50 1018.63
1006.36 1006.22 1005.98 1005.64 1005.26 1004.91 1004.67 1004.64 1004.87 1005.38 1006.15 1007.12 1008.20 1009.32 1010.36 1011.27 1012.00 1012.56 1012.96 1013.25 1013.49 1013.74 1014.02 1014.38 1014.80 1015.28 1015.80 1016.32 1016.83 1017.28 1017.68 1018.00 1018.25 1018.42 1018.53 1018.58 1018.59 1018.57 1018.54 1018.52 1018.54 1018.60 1018.71
1006.80 1006.49 1006.09 1005.64 1005.21 1004.87 1004.70 1004.78 1005.15 1005.78 1006.64 1007.67 1008.76 1009.84 1010.82 1011.63 1012.26 1012.72 1013.04 1013.28 1013.47 1013.68 1013.94 1014.27 1014.68 1015.14 1015.64 1016.15 1016.65 1017.11 1017.51 1017.86 1018.14 1018.36 1018.50 1018.60 1018.63 1018.64 1018.62 1018.60 1018.60 1018.64 1018.72
1007.13 1006.67 1006.14 1005.60 1005.12 1004.80 1004.71 1004.89 1005.36 1006.08 1007.01 1008.05 1009.12 1010.14 1011.03 1011.76 1012.30 1012.69 1012.96 1013.17 1013.36 1013.58 1013.86 1014.21 1014.61 1015.07 1015.55 1016.03 1016.50 1016.93 1017.32 1017.66 1017.94 1018.18 1018.36 1018.48 1018.56 1018.59 1018.59 1018.57 1018.56 1018.58 1018.62
1007.40 1006.82 1006.19 1005.58 1005.09 1004.79 1004.75 1005.00 1005.53 1006.30 1007.23 1008.24 1009.25 1010.18 1010.98 1011.61 1012.08 1012.43 1012.69 1012.91 1013.15 1013.43 1013.76 1014.15 1014.59 1015.05 1015.52 1015.97 1016.39 1016.78 1017.12 1017.43 1017.70 1017.94 1018.13 1018.28 1018.38 1018.44 1018.46 1018.45 1018.43 1018.41 1018.42
1007.63 1006.99 1006.31 1005.68 1005.18 1004.91 1004.90 1005.17 1005.71 1006.46 1007.35 1008.28 1009.18 1009.99 1010.67 1011.21 1011.62 1011.95 1012.23 1012.51 1012.82 1013.19 1013.61 1014.08 1014.56 1015.05 1015.51 1015.93 1016.31 1016.65 1016.94 1017.21 1017.45 1017.68 1017.87 1018.04 1018.16 1018.24 1018.27 1018.26 1018.22 1018.18 1018.13
1007.82 1007.19 1006.51 1005.90 1005.43 1005.18 1005.19 1005.46 1005.96 1006.64 1007.42 1008.22 1008.97 1009.64 1010.19 1010.64 1011.00 1011.31 1011.63 1011.98 1012.39 1012.86 1013.38 1013.93 1014.48 1015.00 1015.47 1015.88 1016.22 1016.51 1016.77 1017.00 1017.22 1017.43 1017.62 1017.80 1017.93 1018.02 1018.06 1018.04 1017.99 1017.90 1017.81
1007.94 1007.36 1006.75 1006.20 1005.79 1005.58 1005.59 1005.84 1006.27 1006.84 1007.48 1008.12 1008.70 1009.21 1009.63 1009.98 1010.29 1010.60 1010.95 1011.37 1011.86 1012.43 1013.05 1013.68 1014.29 1014.85 1015.33 1015.74 1016.07 1016.34 1016.58 1016.79 1016.99 1017.20 1017.40 1017.58 1017.72 1017.82 1017.85 1017.83 1017.74 1017.62 1017.48
1007.92 1007.45 1006.95 1006.50 1006.18 1006.02 1006.05 1006.26 1006.61 1007.06 1007.54 1008.01 1008.43 1008.78 1009.06 1009.32 1009.57 1009.87 1010.25 1010.71 1011.27 1011.91 1012.60 1013.29 1013.95 1014.55 1015.06 1015.48 1015.82 1016.10 1016.33 1016.55 1016.76 1016.98 1017.19 1017.38 1017.53 1017.62 1017.65 1017.61 1017.50 1017.34 1017.15
1007.68 1007.36 1007.01 1006.70 1006.48 1006.39 1006.45 1006.63 1006.91 1007.24 1007.58 1007.89 1008.15 1008.36 1008.53 1008.70 1008.91 1009.18 1009.56 1010.05 1010.65 1011.33 1012.05 1012.78 1013.47 1014.09 1014.63 1015.08 1015.44 1015.75 1016.02 1016.26 1016.50 1016.74 1016.97 1017.17 1017.33 1017.42 1017.44 1017.38 1017.24 1017.06 1016.84
1007.19 1007.02 1006.84 1006.67 1006.58 1006.58 1006.67 1006.84 1007.06 1007.30 1007.53 1007.72 1007.86 1007.95 1008.04 1008.14 1008.31 1008.56 1008.93 1009.42 1010.02 1010.70 1011.43 1012.17 1012.87 1013.51 1014.07 1014.55 1014.96 1015.31 1015.62 1015.92 1016.20 1016.46 1016.71 1016.92 1017.07 1017.16 1017.16 1017.08 1016.93 1016.73 1016.49
1006.45 1006.43 1006.39 1006.38 1006.41 1006.49 1006.63 1006.80 1007.00 1007.18 1007.33 1007.43 1007.49 1007.52 1007.55 1007.62 1007.76 1008.00 1008.35 1008.83 1009.42 1010.08 1010.80 1011.52 1012.22 1012.86 1013.45 1013.96 1014.41 1014.81 1015.18 1015.52 1015.84 1016.13 1016.39 1016.60 1016.74 1016.81 1016.79 1016.69 1016.53 1016.32 1016.08
1005.49 1005.59 1005.69 1005.80 1005.94 1006.10 1006.29 1006.48 1006.66 1006.81 1006.92 1006.98 1007.01 1007.01 1007.03 1007.10 1007.23 1007.47 1007.83 1008.29 1008.86 1009.50 1010.19 1010.89 1011.58 1012.23 1012.83 1013.37 1013.86 1014.31 1014.71 1015.09 1015.43 1015.73 1015.98 1016.18 1016.30 1016.34 1016.29 1016.18 1016.02 1015.82 1015.60
1004.39 1004.58 1004.78 1004.98 1005.20 1005.43 1005.65 1005.86 1006.04 1006.18 1006.28 1006.33 1006.36 1006.38 1006.43 1006.52 1006.69 1006.96 1007.33 1007.80 1008.36 1008.99 1009.66 1010.35 1011.03 1011.68 1012.29 1012.85 1013.37 1013.84 1014.27 1014.66 1014.99 1015.28 1015.50 1015.66 1015.74 1015.74 1015.68 1015.55 1015.40 1015.22 1015.04
Thickness
5822 5823 5821 5818 5813 5810 5808 5806 5803 5800 5797 5793 5789 5785 5783 5783 5783 5783 5782 5781 5780 5779 5777 5775 5773 5772 5770 5768 5767 5765 5764 5762 5763 5759 5755 5757 5759 5759 5759 5758 5756 5754 5753
5818 5819 5819 5818 5814 5810 5808 5807 5805 5802 5799 5796 5793 5789 5786 5784 5783 5783 5782 5781 5780 5778 5776 5774 5772 5771 5769 5767 5766 5764 5762 5760 5761 5756 5750 5745 5747 5752 5756 5755 5753 5752 5750
5820 5820 5819 5818 5816 5812 5810 5809 5806 5803 5800 5798 5794 5790 5786 5783 5780 5779 5779 5780 5779 5777 5775 5773 5772 5770 5768 5766 5765 5764 5761 5757 5758 5758 5751 5742 5737 5741 5747 5749 5750 5749 5747
5824 5822 5820 5818 5817 5816 5814 5810 5806 5804 5801 5798 5793 5788 5782 5778 5778 5779 5778 5778 5778 5776 5775 5773 5771 5769 5767 5765 5764 5763 5761 5757 5753 5754 5754 5752 5747 5739 5736 5741 5744 5745 5744
5827 5825 5823 5822 5821 5819 5814 5810 5806 5803 5801 5797 5793 5788 5784 5781 5780 5778 5777 5776 5775 5775 5773 5771 5770 5768 5766 5764 5762 5760 5759 5756 5753 5751 5750 5748 5746 5743 5736 5731 5735 5738 5740
5829 5826 5825 5822 5820 5818 5814 5810 5805 5802 5800 5797 5793 5789 5784 5781 5778 5775 5773 5772 5772 5771 5771 5770 5768 5766 5763 5761 5760 5758 5756 5754 5752 5750 5748 5745 5741 5738 5735 5731 5730 5730 5734
5828 5824 5821 5818 5817 5815 5812 5809 5805 5800 5799 5796 5793 5790 5786 5782 5778 5775 5773 5770 5769 5768 5768 5767 5765 5763 5761 5759 5757 5755 5753 5751 5749 5747 5746 5744 5742 5740 5737 5731 5727 5726 5728
5827 5825 5824 5820 5818 5815 5811 5808 5804 5800 5798 5795 5793 5791 5788 5784 5780 5777 5774 5771 5769 5767 5766 5765 5763 5761 5759 5756 5754 5752 5750 5748 5746 5745 5743 5742 5740 5738 5736 5731 5726 5720 5720
5826 5824 5823 5821 5818 5815 5812 5809 5804 5799 5797 5795 5792 5789 5786 5783 5780 5777 5774 5771 5769 5767 5765 5762 5760 5758 5756 5754 5751 5748 5746 5745 5743 5742 5740 5738 5737 5736 5734 5731 5727 5720 5713
5822 5820 5819 5819 5818 5817 5814 5810 5805 5799 5796 5793 5791 5788 5784 5782 5779 5775 5771 5769 5767 5765 5762 5759 5757 5754 5752 5750 5747 5745 5743 5741 5740 5738 5736 5734 5733 5732 5730 5728 5725 5722 5716
5816 5817 5817 5817 5816 5814 5811 5806 5802 5797 5793 5791 5788 5785 5781 5779 5776 5772 5770 5767 5765 5762 5759 5756 5754 5750 5748 5746 5744 5741 5739 5737 5735 5734 5732 5730 5729 5727 5726 5724 5721 5718 5714
5815 5815 5814 5813 5811 5808 5806 5803 5800 5796 5793 5789 5785 5782 5779 5776 5773 5770 5767 5765 5762 5759 5756 5753 5750 5747 5745 5742 5740 5737 5735 5732 5730 5729 5727 5726 5725 5722 5721 5718 5716 5713 5711
5810 5809 5807 5807 5807 5806 5804 5801 5799 5795 5792 5787 5783 5779 5775 5773 5771 5768 5765 5762 5759 5756 5753 5750 5747 5744 5741 5738 5737 5734 5732 5729 5727 5725 5723 5721 5720 5717 5715 5714 5711 5709 5708
5805 5803 5801 5802 5802 5802 5800 5797 5795 5793 5789 5785 5780 5776 5774 5772 5769 5766 5763 5760 5757 5753 5750 5747 5744 5741 5739 5736 5734 5731 5728 5726 5724 5722 5720 5718 5716 5713 5711 5709 5707 5704 5701
5800 5799 5797 5797 5797 5796 5796 5794 5792 5790 5787 5782 5777 5775 5773 5770 5766 5762 5760 5757 5754 5751 5748 5744 5741 5739 5736 5734 5730 5728 5726 5722 5720 5718 5716 5715 5713 5711 5708 5706 5702 5699 5695
5799 5798 5797 5796 5794 5793 5792 5790 5787 5786 5783 5778 5774 5772 5769 5765 5762 5759 5756 5753 5750 5747 5744 5741 5738 5736 5734 5732 5729 5726 5722 5719 5716 5713 5712 5711 5709 5707 5705 5703 5700 5697 5692
5796 5796 5796 5796 5795 5793 5792 5787 5784 5782 5777 5773 5770 5768 5765 5761 5758 5756 5752 5748 5746 5743 5740 5737 5734 5732 5730 5728 5725 5723 5719 5715 5712 5709 5707 5706 5705 5701 5699 5697 5695 5692 5689
5793 5792 5792 5792 5792 5790 5787 5783 5780 5775 5771 5768 5766 5763 5760 5757 5754 5751 5748 5745 5742 5739 5736 5733 5731 5728 5726 5724 5721 5718 5714 5711 5708 5705 5703 5700 5697 5696 5693 5690 5687 5685 5684
5791 5790 5789 5788 5787 5784 5782 5777 5773 5769 5765 5762 5760 5759 5757 5753 5749 5746 5744 5742 5738 5735 5732 5729 5726 5722 5720 5718 5716 5712 5708 5705 5702 5700 5698 5695 5693 5691 5688 5684 5680 5678 5678
5785 5784 5783 5782 5779 5777 5776 5770 5765 5763 5760 5759 5757 5756 5753 5749 5746 5743 5740 5737 5734 5731 5728 5724 5721 5718 5715 5713 5709 5706 5702 5698 5695 5693 5692 5690 5688 5686 5682 5678 5674 5671 5671
5778 5777 5775 5772 5771 5771 5768 5763 5760 5759 5759 5757 5754 5751 5749 5746 5742 5739 5736 5733 5730 5726 5722 5718 5716 5713 5710 5708 5704 5701 5697 5693 5689 5687 5685 5684 5683 5680 5678 5675 5671 5669 5667
5768 5767 5765 5764 5764 5764 5761 5757 5754 5756 5755 5752 5749 5747 5744 5741 5739 5733 5730 5727 5724 5719 5715 5712 5709 5707 5705 5702 5700 5697 5693 5690 5686 5683 5681 5679 5677 5675 5672 5670 5668 5666 5662
5758 5759 5757 5756 5756 5756 5756 5751 5751 5750 5748 5745 5742 5740 5738 5735 5732 5728 5723 5720 5717 5713 5710 5706 5703 5701 5699 5697 5695 5692 5688 5684 5681 5680 5677 5675 5672 5669 5667 5666 5665 5662 5657
5749 5749 5748 5746 5746 5747 5748 5747 5746 5744 5741 5738 5735 5733 5729 5726 5724 5721 5718 5714 5711 5708 5706 5702 5699 5696 5693 5690 5688 5685 5682 5679 5676 5674 5671 5669 5667 5664 5663 5661 5658 5656 5653
5739 5739 5738 5738 5738 5739 5739 5739 5738 5736 5733 5730 5728 5725 5722 5719 5716 5714 5711 5709 5708 5706 5703 5700 5696 5691 5688 5687 5684 5680 5677 5674 5671 5668 5664 5661 5658 5656 5655 5654 5652 5650 5647
5729 5729 5729 5730 5730 5730 5729 5730 5729 5727 5725 5722 5719 5717 5714 5711 5708 5705 5702 5702 5701 5700 5698 5696 5693 5690 5688 5684 5680 5676 5673 5670 5667 5662 5659 5656 5653 5651 5650 5647 5645 5643 5640